Location: Bartshausen
(51.8454°N, 9.8167°E)
Time: 09:29:51
(UTC+00:00)

NOSS 2-1 (E) - Pass Details

Date: 08 November 2025
Orbit: 385 x 1749 km, 63.3° (Epoch: 07 May)

Event Time Altitude Azimuth Distance (km) Brightness Sun altitude
Exits shadow 05:18:52 12° 250° (WSW) 1,442 5.0 -10.8°
Maximum altitude 05:21:45 42° 322° (NW) 598 3.1 -10.4°
Drops below altitude 10° 05:24:40 10° 35° (NE) 1,425 5.7 -10.0°
Sets 05:26:42 0° 43° (NE) 2,285 6.9 -9.7°
